Startseite
Über Mich
AHP4
Galerie
Sehschlangen
Tourenbuch
Bookmarks
Elektronik
Bewertung
Geschichten
[Tagesmessung] [Jahreswerte] [Information]

Messwerte vom 31.12.2021

Die letzten Messwerte von 23:58:47 Uhr:
KategorieMesswert
Temperatur [°C]12
Luftdruck [mBar]1002
Sonneneinstrahlung0
Wind [km/h]2 aus Südwest
Niederschlag [l/m²]0
rel.Luftfeucht.96.6%
CO2 [ppm]404

Diagramme
Messwerte vom 31.12.2021
Tagesaggregation
KategorieMinimumMaximumSchnittSumme
Temperatur [°C]111412.3708
Luftdruck [mBar]9971003999.1146
Sonneneinstrahlung20251.1042
Wind [km/h]26
rF [%]84.496.693.9
Niederschlag [l/m²]0.515
CO2 [ppm]401800656.6
Einordnung alsVegetationstag

Messungen an benachbarten Tagen: Zur Jahresaggregation 2021
Tabelle aller Messwerte
UhrzeitTemperatur [°C]Luftdruck [mBar]SonneWind [km/h]RichtungRegen [l/m²]rF [%]CO2 [ppm]
00:01:48 12 999 0 3 SW 0 96.6 727
00:04:48 12 999 0 3 S 0 96.6 720
00:07:48 12 998 0 2 SW 0 96.6 720
00:10:50 12 999 0 5 SW 0 96.6 718
00:13:47 12 999 0 0 W 0 96.6 719
00:16:50 12 998 0 11 NW 0 96.6 724
00:19:48 12 998 0 1 SW 0 96.6 725
00:22:48 12 999 0 3 SW 0 96.6 733
00:25:48 12 998 0 2 SW 0 96.6 734
00:28:50 12 998 0 3 SW 0 96.6 737
00:31:49 12 999 0 1 W 0 96.6 729
00:34:47 12 999 0 3 SO 0 96.6 727
00:37:47 12 999 0 0 W 0 96.6 724
00:40:47 12 998 0 5 SO 0 96.6 729
00:43:48 12 999 0 0 O 0 96.6 740
00:46:46 12 999 0 2 NO 0 96.6 746
00:49:46 12 999 0 2 SW 0 96.6 743
00:52:48 12 999 0 5 S 0 96.6 733
00:55:48 12 999 0 2 S 0 96.6 735
00:58:47 12 999 0 4 W 0 96.6 721
01:01:47 12 999 0 3 SW 0 96.6 721
01:04:46 12 999 0 0 W 0 96.6 713
01:07:48 12 999 0 2 W 0 96.6 724
01:10:45 12 999 0 0 0 96.6 737
01:13:47 12 999 0 9 NW 0 96.6 746
01:16:45 12 999 0 4 W 0 96.6 746
01:19:49 12 1000 0 2 SO 0 96.6 744
01:22:47 12 999 0 4 SO 0 96.6 744
01:25:47 12 999 0 3 NO 0 96.6 740
01:28:48 12 999 0 3 SO 0 96.6 744
01:31:46 12 999 0 9 S 0 96.6 746
01:34:46 12 999 0 5 O 0 96.6 742
01:37:49 12 999 0 3 NW 0 96.6 738
01:40:50 12 999 0 1 W 0 96.6 742
01:43:47 12 999 0 3 SW 0 96.6 749
01:46:47 12 999 0 12 W 0 96.6 749
01:49:49 12 999 0 7 SW 0 96.6 750
01:52:47 12 999 0 6 SW 0 96.6 741
01:55:49 12 999 0 7 SW 0 96.6 743
01:58:48 12 999 0 4 NW 0 96.6 729
02:01:49 12 999 0 2 NW 0 96.6 732
02:04:48 12 999 0 14 NO 0 96.6 735
02:07:47 12 999 0 2 W 0 96.6 743
02:10:49 12 999 0 1 SW 0 96.6 743
02:13:47 12 999 0 4 SO 0 96.6 746
02:16:46 12 999 0 10 S 0 96.6 741
02:19:49 12 999 0 5 SW 0 96.6 733
02:22:47 12 998 0 5 O 0 96.6 736
02:25:48 12 999 0 10 W 0 96.6 739
02:28:48 12 999 0 4 SW 0 96.6 738
02:31:46 12 999 0 3 W 0 96.6 739
02:34:49 12 999 0 2 NO 0 96.6 737
02:37:45 12 999 0 0 SO 0.2575 96.6 733
02:40:48 12 999 0 2 SO 0 96.6 735
02:43:49 12 999 0 10 SW 0 96.6 731
02:46:46 12 999 0 2 NW 0 96.6 737
02:49:45 12 999 0 2 S 0 96.6 737
02:52:50 12 999 0 0 W 0 96.6 741
02:55:46 12 999 0 3 W 0 96.6 738
02:58:49 12 999 0 5 SW 0 96.6 743
03:01:47 12 1000 0 1 W 0 96.6 741
03:04:47 12 999 0 13 W 0 96.6 740
03:07:47 12 999 0 9 S 0 96.6 732
03:10:46 12 999 0 0 W 0 96.6 718
03:13:47 12 998 0 9 SW 0 96.6 722
03:16:47 12 999 0 8 W 0 96.6 725
03:19:46 12 999 0 6 W 0 96.6 720
03:22:46 12 999 0 3 S 0 96.6 702
03:25:46 12 999 0 12 S 0 96.6 708
03:28:47 12 999 0 3 SO 0 96.6 710
03:31:46 12 999 0 5 S 0 96.6 712
03:34:47 12 999 0 5 S 0 96.6 715
03:37:49 12 999 0 11 SW 0 96.6 720
03:40:46 12 999 0 5 SO 0 96.6 727
03:43:47 12 999 0 5 SO 0 96.6 726
03:46:49 12 999 0 20 O 0 96.6 723
03:49:50 12 1000 0 6 SW 0 96.6 721
03:52:46 12 999 0 17 0 96.6 715
03:55:46 12 999 0 6 SW 0 96.6 718
03:58:48 12 999 0 2 NO 0 96.6 715
04:01:48 12 999 0 3 SO 0 96.6 722
04:04:49 12 999 0 9 S 0 96.6 724
04:07:47 12 999 0 7 S 0 96.6 723
04:10:47 12 999 0 9 NW 0 96.6 720
04:13:44 12 999 0 2 N 0 96.6 703
04:16:47 12 999 0 1 SO 0 96.6 699
04:19:45 12 999 0 20 S 0 96.6 711
04:22:46 12 999 0 4 SW 0 96.6 722
04:25:47 12 999 0 3 SW 0 96.6 723
04:28:45 12 999 0 4 O 0 96.6 729
04:31:48 12 999 0 6 SO 0 96.6 729
04:34:47 12 999 0 0 S 0 96.6 720
04:37:47 12 998 0 8 SW 0 96.6 716
04:40:46 12 999 0 3 SO 0 96.6 713
04:43:49 12 998 0 5 SW 0 96.6 720
04:46:46 12 998 0 5 S 0 96.6 715
04:49:46 12 999 0 7 SW 0 96.6 718
04:52:48 12 998 0 13 SW 0 96.6 714
04:55:45 12 999 0 5 O 0 96.6 705
04:58:47 12 999 0 5 SO 0 96.6 706
05:01:45 12 999 0 3 O 0 96.6 710
05:04:47 12 999 0 4 SO 0 96.6 717
05:07:46 12 998 0 9 S 0 96.6 715
05:10:49 12 999 0 0 SW 0 96.6 708
05:13:48 12 998 0 3 NO 0 96.6 706
05:16:48 12 998 0 10 W 0 96.6 703
05:19:46 12 999 0 9 SW 0 96.6 704
05:22:48 12 998 0 3 W 0 96.6 705
05:25:47 12 998 0 3 O 0 96.6 701
05:28:46 12 999 0 4 W 0 96.6 704
05:31:49 12 999 0 1 SW 0 96.6 706
05:34:47 12 999 0 2 SW 0 96.6 706
05:37:49 12 999 0 13 SO 0 96.6 707
05:40:45 12 999 0 5 W 0 96.6 708
05:43:47 12 999 0 9 NW 0 96.6 709
05:46:49 12 998 0 5 S 0 96.6 708
05:49:46 12 999 0 11 W 0 96.6 705
05:52:47 12 999 0 8 SW 0 96.6 708
05:55:47 12 999 0 4 S 0 96.6 709
05:58:48 12 999 0 4 SW 0 96.6 715
06:01:49 12 998 0 4 S 0 96.6 723
06:04:47 12 998 0 5 S 0 96.6 718
06:07:46 12 999 0 5 SW 0 96.6 719
06:10:47 12 999 0 2 SW 0 96.6 710
06:13:47 12 998 0 7 SW 0 96.6 714
06:16:47 12 998 0 7 S 0 96.6 708
06:19:45 12 999 0 6 N 0 96.6 711
06:22:46 12 999 0 5 O 0 96.6 713
06:25:47 12 999 0 5 S 0 96.6 708
06:28:48 12 999 0 2 SW 0 96.6 697
06:31:46 12 998 0 2 S 0 96.6 705
06:34:48 12 999 0 4 S 0 96.6 708
06:37:48 12 999 0 2 SO 0 96.6 714
06:40:50 12 999 0 10 W 0 96.6 712
06:43:45 12 999 0 5 N 0 96.6 719
06:46:48 12 998 0 2 N 0 96.6 720
06:49:47 12 999 0 3 SO 0 96.6 715
06:52:47 12 999 0 3 N 0 96.6 724
06:55:45 12 999 0 2 W 0 96.6 717
06:58:48 12 999 0 5 O 0 96.6 718
07:01:47 12 999 0 15 S 0 96.6 717
07:04:46 12 999 0 4 S 0 96.6 711
07:07:48 12 999 0 6 S 0 96.6 712
07:10:48 12 999 0 1 SO 0 96.6 708
07:13:47 12 999 0 2 NW 0 96.6 709
07:16:46 12 999 0 8 N 0 96.6 706
07:19:47 12 999 0 6 S 0 96.6 700
07:22:47 12 999 0 3 S 0 96.6 702
07:25:46 12 999 0 1 NW 0 96.6 703
07:28:46 12 999 0 3 W 0 96.6 709
07:31:48 12 999 0 4 W 0 96.6 709
07:34:47 12 999 0 3 S 0 96.6 710
07:37:51 12 999 0 7 SW 0 96.6 702
07:40:47 12 999 0 8 SO 0 96.6 697
07:43:46 12 999 0 5 NO 0 96.6 696
07:46:47 12 999 0 5 W 0 96.6 702
07:49:49 12 999 0 13 NW 0 96.6 697
07:52:49 12 999 0 4 N 0 96.6 694
07:55:45 12 998 0 4 W 0 96.6 694
07:58:48 12 999 0 5 SW 0 96.6 700
08:01:45 12 999 0 8 O 0 96.6 705
08:04:49 12 999 3 3 SW 0 96.6 708
08:07:46 12 999 5 1 W 0 96.6 711
08:10:47 12 999 8 6 S 0 96.6 709
08:13:47 12 999 13 2 S 0 96.6 700
08:16:48 12 998 17 5 SO 0 96.6 706
08:19:49 12 998 24 7 S 0 96.6 712
08:22:49 12 999 29 1 NO 0 96.6 712
08:25:48 12 999 32 5 S 0 96.6 710
08:28:49 12 999 36 2 S 0 96.6 703
08:31:48 12 998 51 3 SW 0 96.6 708
08:34:50 12 999 61 12 S 0 96.6 700
08:37:49 12 999 85 4 SO 0 96.6 700
08:40:51 12 998 108 4 SO 0 96.6 703
08:43:47 12 999 116 0 W 0 96.6 709
08:46:48 12 998 126 4 SW 0 96.4 711
08:49:48 12 999 133 5 S 0 96 719
08:52:47 12 998 137 13 O 0 95.7 714
08:55:50 12 998 142 2 SO 0 95.3 707
08:58:47 12 998 148 3 S 0 95.4 705
09:01:49 12 998 150 6 O 0 95.3 702
09:04:51 12 999 152 9 SO 0 94.8 699
09:07:49 12 998 150 1 W 0 94.6 699
09:10:49 12 999 159 6 SW 0 94.6 701
09:13:48 12 999 159 4 SO 0 94.3 702
09:16:48 12 999 156 6 S 0 94.7 706
09:19:48 13 998 156 12 SO 0 94.2 712
09:22:50 13 999 159 3 SW 0 93.6 708
09:25:49 13 999 162 10 S 0 93.5 700
09:28:47 13 999 167 13 W 0 93.1 697
09:31:53 13 998 174 2 SW 0 93.1 708
09:34:48 13 999 175 2 NW 0 93.3 725
09:37:48 13 999 175 3 SO 0 93.6 726
09:40:48 13 998 170 6 NW 0 93.5 719
09:43:47 13 998 172 2 SO 0 93.1 708
09:46:48 13 999 176 8 S 0 93 536
09:49:48 13 998 174 2 S 0 93.2 401
09:52:48 13 999 175 0 SO 0 93.4 404
09:55:50 13 999 173 3 O 0 93.8 406
09:58:48 13 999 171 4 SW 0 93.7 422
10:01:48 13 998 172 6 S 0 93.3 486
10:04:48 13 998 174 1 N 0 93.3 515
10:07:50 13 999 176 3 W 0 93.6 528
10:10:51 13 998 190 10 SW 0 92 530
10:13:46 13 998 182 5 S 0 91.5 545
10:16:48 13 999 191 2 W 0 92 550
10:19:48 13 999 201 11 S 0 91.7 556
10:22:47 13 998 202 3 S 0 91.3 557
10:25:46 13 999 196 3 SW 0 91.7 556
10:28:45 13 999 197 8 S 0 91.7 562
10:31:46 13 999 177 12 S 0 91.5 573
10:34:49 13 998 183 3 SO 0 91.4 579
10:37:50 13 998 160 5 O 0 91.2 583
10:40:47 13 999 156 2 W 0 90.7 582
10:43:47 13 999 161 1 S 0 91.3 577
10:46:47 13 999 181 5 SO 0 91.4 579
10:49:48 13 999 184 0 NO 0 91.6 585
10:52:47 13 999 186 5 SO 0 91.9 594
10:55:49 13 999 186 3 S 0 91.7 603
10:58:49 13 998 190 7 W 0 91.9 603
11:01:46 13 999 188 2 S 0 91.8 606
11:04:48 13 999 185 3 SO 0 92.4 615
11:07:48 13 998 175 5 O 0 92.6 620
11:10:48 13 998 166 13 S 0 92.5 623
11:13:49 13 999 152 5 SW 0 92.3 614
11:16:49 13 999 133 5 W 0 92.4 612
11:19:49 13 999 124 6 SO 0 92.9 620
11:22:47 13 998 131 12 O 0 93.2 623
11:25:47 13 999 129 4 S 0 93.3 627
11:28:48 13 999 143 8 SW 0 93.5 626
11:31:46 13 999 158 4 S 0 93.5 629
11:34:47 13 999 165 2 SO 0 93.5 629
11:37:47 13 999 162 6 W 0 93.7 623
11:40:47 13 999 163 6 S 0 93.2 623
11:43:49 13 998 152 4 W 0 93.2 620
11:46:48 13 999 152 4 W 0 93.5 632
11:49:46 13 998 143 2 O 0 93.3 638
11:52:48 13 998 143 1 SO 0 93.7 638
11:55:47 13 999 156 3 SO 0 93.7 632
11:58:48 13 998 170 7 SO 0 93.5 633
12:01:48 13 999 159 4 W 0 93.2 639
12:04:46 13 999 157 3 S 0 93.5 636
12:07:50 13 999 160 3 S 0 93.1 636
12:10:47 13 999 159 4 S 0 93.1 634
12:13:49 13 998 150 3 NW 0 92.9 641
12:16:48 13 998 159 6 SW 0 91.8 647
12:19:47 13 998 161 1 S 0 90.9 655
12:22:47 13 998 170 9 S 0 91 656
12:25:47 13 998 173 20 S 0 89.3 661
12:28:49 13 999 163 5 SW 0 88.2 667
12:31:49 13 998 167 4 NW 0 88.4 664
12:34:48 13 998 172 7 NW 0 87.9 664
12:37:48 13 998 180 4 S 0 87.8 670
12:40:49 13 998 180 1 NW 0 87.5 673
12:43:48 13 998 184 12 W 0 85.5 673
12:46:47 14 999 191 4 NW 0 85.5 670
12:49:48 14 998 191 3 W 0 86.1 671
12:52:49 14 998 192 8 SW 0 85.7 668
12:55:49 14 998 189 10 SW 0 84.9 667
12:58:48 14 998 185 14 W 0 85 672
13:01:49 14 999 181 4 N 0 85.6 680
13:04:49 14 998 182 8 O 0 85.6 676
13:07:48 14 998 187 21 S 0 85.6 662
13:10:49 14 998 189 11 SO 0 85.5 653
13:13:50 14 998 190 10 SW 0 85.3 656
13:16:49 14 998 188 9 N 0 84.6 663
13:19:52 14 998 188 9 NW 0 85.5 666
13:22:48 14 998 185 26 NO 0 85.7 668
13:25:48 14 998 186 19 S 0 84.7 672
13:28:48 14 998 181 1 O 0 84.7 673
13:31:51 14 998 176 12 SO 0 85.5 671
13:34:50 14 998 172 8 SO 0 85.4 674
13:37:49 14 998 168 5 S 0 85.4 671
13:40:48 14 998 164 5 S 0 85.5 681
13:43:49 14 998 157 4 SW 0 85.3 691
13:46:48 14 998 155 4 SW 0 85.1 696
13:49:48 14 998 153 16 S 0 85.4 689
13:52:48 13 998 147 4 W 0 85.5 683
13:55:49 13 998 138 5 SO 0 85.6 691
13:58:49 13 998 136 6 SW 0 85.2 696
14:01:47 13 998 142 8 S 0 85.2 696
14:04:47 13 998 156 6 0 85.3 688
14:07:49 13 998 160 11 S 0 85.6 682
14:10:51 13 998 144 16 SW 0 85.5 688
14:13:48 13 998 144 10 NW 0 85.2 694
14:16:48 13 998 151 2 SW 0 85.3 694
14:19:51 13 998 159 20 SW 0 85.6 697
14:22:50 13 998 159 6 SO 0 85.2 686
14:25:48 13 998 158 3 S 0 85.3 682
14:28:48 13 997 178 4 SW 0 85.6 681
14:31:48 13 997 190 1 NW 0 85.8 685
14:34:46 13 997 189 2 S 0 85.5 685
14:37:48 13 998 187 4 S 0 85.3 682
14:40:46 13 997 184 4 NO 0 84.8 694
14:43:48 13 998 182 8 SW 0 85.1 694
14:46:47 13 997 178 5 S 0 85.2 705
14:49:46 13 998 175 4 S 0 85.6 703
14:52:48 13 998 175 6 SW 0 85.5 708
14:55:47 13 998 200 1 SW 0 85.4 709
14:58:46 13 998 191 3 O 0 85.5 704
15:01:49 13 998 168 3 W 0 85.6 702
15:04:49 13 998 158 15 NW 0 85.2 710
15:07:47 13 998 153 17 O 0 85.2 711
15:10:46 13 998 155 7 S 0 85 725
15:13:46 13 997 150 7 SO 0 85 730
15:16:48 13 998 156 20 SW 0 84.4 737
15:19:48 13 997 153 7 O 0 84.6 741
15:22:46 13 998 150 2 O 0 84.6 737
15:25:48 13 998 126 5 S 0 85.1 741
15:28:47 13 998 128 4 O 0 85.3 738
15:31:48 13 998 115 2 NW 0 85.3 743
15:34:48 13 998 117 8 SO 0 85.3 747
15:37:49 13 998 126 10 NO 0 84.6 744
15:40:50 13 998 145 4 SW 0 84.9 739
15:43:49 13 998 147 9 SW 0 85.1 742
15:46:48 13 998 147 3 S 0 84.8 746
15:49:49 13 998 129 7 SW 0 85 751
15:52:47 13 998 111 4 SW 0 84.8 755
15:55:50 13 998 88 3 SW 0 84.4 756
15:58:47 13 998 69 4 NO 0 84.8 753
16:01:45 13 998 59 4 S 0 85 751
16:04:48 13 998 43 2 O 0 84.9 757
16:07:51 13 998 34 2 SW 0 85.4 757
16:10:50 13 998 28 9 SW 0 85.4 752
16:13:50 13 998 27 2 SW 0 85.2 750
16:16:48 13 998 23 8 SW 0 85.6 744
16:19:47 13 998 14 5 SW 0 85.9 750
16:22:46 13 998 7 6 NW 0 86.1 749
16:25:48 13 998 10 3 N 0 86.1 759
16:28:46 13 998 6 1 SO 0 86.4 761
16:31:47 13 998 4 8 SO 0 86.6 752
16:34:47 13 998 3 10 NW 0 86.3 740
16:37:47 13 998 0 3 SW 0 86.8 734
16:40:46 13 998 0 17 S 0 87.1 749
16:43:47 13 998 0 2 S 0 87.6 767
16:46:50 13 998 0 7 SO 0 87.9 770
16:49:49 13 998 0 8 SW 0 88 778
16:52:48 13 998 0 6 SW 0 88.2 776
16:55:48 13 998 0 1 SW 0 88.9 782
16:58:47 13 998 0 2 SW 0 89.3 785
17:01:46 13 998 0 2 O 0 89.6 791
17:04:50 13 998 0 1 NW 0 89.9 795
17:07:47 13 998 0 1 SO 0 90.2 797
17:10:49 13 998 0 5 SW 0 90.9 800
17:13:45 13 998 0 4 S 0 91.6 799
17:16:49 12 998 0 15 SO 0 92.9 795
17:19:47 12 998 0 9 SW 0 94.1 797
17:22:47 12 998 0 2 S 0 95.3 792
17:25:46 12 998 0 6 SW 0 96.6 794
17:28:48 12 998 0 9 W 0.2575 96.6 793
17:31:49 12 998 0 12 W 0 96.6 796
17:34:48 12 998 0 10 SW 0 96.6 793
17:37:46 12 998 0 7 W 0 96.6 794
17:40:48 12 998 0 6 SW 0 96.6 798
17:43:45 12 999 0 6 SW 0 96.6 796
17:46:48 12 998 0 11 SO 0 96.6 785
17:49:45 12 999 0 17 W 0 96.6 770
17:52:46 12 998 0 8 W 0 96.6 758
17:55:47 11 998 0 11 W 0 96.6 756
17:58:47 12 998 0 7 S 0 96.6 747
18:01:46 11 999 0 7 SW 0 96.6 746
18:04:45 11 998 0 6 S 0 96.6 736
18:07:46 12 998 0 9 W 0 96.6 741
18:10:47 12 998 0 5 NW 0 96.6 743
18:13:46 12 999 0 5 SW 0 96.6 743
18:16:46 12 998 0 5 W 0 96.6 725
18:19:46 12 999 0 8 W 0 96.6 733
18:22:46 12 998 0 7 SW 0 96.6 731
18:25:47 12 999 0 8 W 0 96.6 726
18:28:49 12 999 0 8 SW 0 96.6 729
18:31:49 12 998 0 6 NW 0 96.6 732
18:34:46 12 998 0 7 W 0 96.6 721
18:37:49 12 998 0 6 W 0 96.6 715
18:40:47 12 998 0 9 O 0 96.6 709
18:43:46 12 998 0 7 W 0 96.6 705
18:46:50 12 999 0 10 SW 0 96.6 708
18:49:48 12 999 0 10 SW 0 96.6 696
18:52:51 12 999 0 8 SO 0 96.6 692
18:55:47 12 999 0 7 NW 0 96.6 686
18:58:47 12 999 0 5 SW 0 96.6 679
19:01:49 12 999 0 11 W 0 96.6 674
19:04:50 12 1000 0 5 NW 0 96.6 665
19:07:50 12 999 0 8 NW 0 96.6 663
19:10:49 12 999 0 6 SW 0 96.6 656
19:13:46 12 999 0 13 W 0 96.6 644
19:16:51 12 999 0 13 NW 0 96.6 645
19:19:47 12 999 0 9 SW 0 96.6 635
19:22:46 12 999 0 6 NO 0 96.6 638
19:25:48 12 1001 0 3 W 0 96.6 629
19:28:49 12 1000 0 6 SW 0 96.6 620
19:31:48 12 1000 0 8 NW 0 96.6 608
19:34:46 12 1000 0 5 0 96.6 600
19:37:49 12 1000 0 8 SW 0 96.6 598
19:40:51 12 1000 0 10 W 0 96.6 598
19:43:48 12 1000 0 5 SW 0 96.6 586
19:46:45 12 1001 0 11 S 0 96.6 579
19:49:48 12 1001 0 8 NW 0 96.6 577
19:52:48 12 1000 0 7 SW 0 96.6 574
19:55:49 12 1001 0 14 SW 0 96.6 571
19:58:45 12 1000 0 7 W 0 96.6 576
20:01:48 12 1001 0 11 SW 0 96.6 579
20:04:47 12 1001 0 5 SW 0 96.6 568
20:07:49 12 1001 0 10 SW 0 96.6 567
20:10:47 12 1000 0 4 O 0 96.6 559
20:13:48 12 1001 0 4 NW 0 96.6 555
20:16:47 12 1001 0 7 SW 0 96.6 552
20:19:48 12 1000 0 4 SW 0 96.6 538
20:22:49 12 1001 0 13 SW 0 96.6 536
20:25:46 12 1001 0 4 N 0 96.6 539
20:28:48 12 1001 0 10 S 0 96.6 533
20:31:49 12 1001 0 5 SW 0 96.6 525
20:34:46 12 1001 0 15 SW 0 96.6 521
20:37:47 12 1001 0 8 SW 0 96.6 515
20:40:49 12 1001 0 11 SW 0 96.6 518
20:43:46 12 1001 0 7 W 0 96.6 513
20:46:44 12 1002 0 9 O 0 96.6 513
20:49:49 12 1001 0 8 SW 0 96.6 512
20:52:46 12 1002 0 8 S 0 96.6 507
20:55:47 12 1001 0 13 W 0 96.6 495
20:58:49 12 1002 0 13 W 0 96.6 489
21:01:49 12 1002 0 10 NW 0 96.6 487
21:04:47 12 1001 0 12 W 0 96.6 489
21:07:47 12 1001 0 5 SW 0 96.6 486
21:10:48 12 1001 0 7 SW 0 96.6 480
21:13:47 12 1002 0 8 SW 0 96.6 477
21:16:46 12 1002 0 3 SW 0 96.6 471
21:19:48 12 1002 0 11 W 0 96.6 474
21:22:50 12 1002 0 7 SW 0 96.6 466
21:25:47 12 1002 0 10 SW 0 96.6 457
21:28:46 12 1002 0 8 S 0 96.6 454
21:31:49 12 1002 0 11 W 0 96.6 454
21:34:47 12 1001 0 9 SW 0 96.6 451
21:37:48 12 1002 0 4 NO 0 96.6 445
21:40:46 12 1002 0 3 NO 0 96.6 445
21:43:48 12 1002 0 7 SW 0 96.6 443
21:46:45 12 1002 0 4 SO 0 96.6 436
21:49:46 12 1002 0 7 S 0 96.6 436
21:52:48 12 1002 0 7 SW 0 96.6 439
21:55:47 12 1002 0 1 O 0 96.6 436
21:58:48 12 1002 0 2 SO 0 96.6 427
22:01:48 12 1002 0 4 NW 0 96.6 424
22:04:48 12 1002 0 5 O 0 96.6 433
22:07:50 12 1002 0 2 SW 0 96.6 433
22:10:46 12 1002 0 3 SO 0 96.6 436
22:13:47 12 1002 0 6 S 0 96.6 427
22:16:48 12 1002 0 5 SW 0 96.6 429
22:19:47 12 1002 0 5 SW 0 96.6 424
22:22:49 12 1002 0 5 SW 0 96.6 426
22:25:48 12 1002 0 18 SW 0 96.6 429
22:28:46 12 1002 0 6 0 96.6 405
22:31:48 12 1002 0 2 NW 0 96.6 403
22:34:47 12 1002 0 6 N 0 96.6 406
22:37:46 12 1002 0 2 SW 0 96.6 407
22:40:47 12 1002 0 3 N 0 96.6 405
22:43:48 12 1002 0 4 W 0 96.6 406
22:46:48 12 1002 0 4 W 0 96.6 404
22:49:47 12 1002 0 3 SO 0 96.6 404
22:52:46 12 1002 0 3 W 0 96.6 405
22:55:49 12 1002 0 6 SW 0 96.6 407
22:58:47 12 1002 0 3 S 0 96.6 407
23:01:48 12 1002 0 10 SO 0 96.6 407
23:04:48 12 1002 0 3 NW 0 96.6 404
23:07:47 12 1002 0 12 S 0 96.6 407
23:10:47 12 1002 0 10 SW 0 96.6 403
23:13:48 12 1002 0 3 NW 0 96.6 407
23:16:47 12 1002 0 9 O 0 96.6 406
23:19:48 12 1002 0 11 NW 0 96.6 406
23:22:48 12 1002 0 16 NW 0 96.6 407
23:25:48 12 1002 0 4 NW 0 96.6 407
23:28:46 12 1002 0 6 S 0 96.6 407
23:31:48 12 1002 0 11 NW 0 96.6 404
23:34:46 12 1002 0 7 W 0 96.6 407
23:37:46 12 1003 0 5 W 0 96.6 406
23:40:49 12 1002 0 2 W 0 96.6 407
23:43:46 12 1002 0 3 N 0 96.6 404
23:46:47 12 1002 0 8 S 0 96.6 407
23:49:46 12 1002 0 5 0 96.6 407
23:52:48 12 1002 0 11 SW 0 96.6 404
23:55:46 12 1002 0 8 S 0 96.6 406
23:58:47 12 1002 0 2 SW 0 96.6 404

Letzte Änderung : 22-Jul-2022
Copyright Jens Köhler, Wolfsburg, Obere Dorfstraße 10d